Regional Weather Roundup
Issued by NWS

Home | Current Version | Previous Version | Graphics & Text | Print | Product List | Glossary On
Versions: 1 2 3 4 5 6 7 8 9 10 11 12 13 14 15 16 17 18 19 20 21 22 23 24 25 26 27 28 29 30 31 32 33 34 35 36 37 38 39 40 41 42 43 44 45 46 47 48 49 50
000
ASUS43 KLSX 270710
RWRMO

WEATHER SUMMARY FOR MISSOURI
NATIONAL WEATHER SERVICE SPRINGFIELD MO
200 AM CDT SAT AUG 27 2016

NOTE: "FAIR" INDICATES FEW OR NO CLOUDS BELOW 12,000 FEET WITH NO
       SIGNIFICANT WEATHER AND/OR OBSTRUCTIONS TO VISIBILITY.
       CURRENT SKY AND/OR WEATHER CONDITIONS ARE NOT AVAILABLE FOR
       CHILLICOTHE AND FARMINGTON.

MOZ001>031-035>038-043-044-053-054-270800-
...NORTHERN AND WESTERN MISSOURI...

CITY           SKY/WX    TMP DP  RH WIND       PRES   REMARKS
KANSAS CTY INT CLOUDY    69  66  90 S6        30.02F
KANSAS C DTWN  LGT RAIN  70  67  90 S5        30.01F
LEE`S SUMMIT   PTCLDY    68  67  96 S3        30.03F
ST JOSEPH      CLOUDY    69  68  96 CALM      30.02F FOG
CHILLICOTHE      N/A     69  68  96 CALM      30.03
KIRKSVILLE     CLOUDY    68  66  93 W3        30.02F

$$
MOZ066>068-077>081-088>096-101>105-270800-
...SOUTHWEST MISSOURI...

CITY           SKY/WX    TMP DP  RH WIND       PRES   REMARKS
SPRINGFIELD    CLOUDY    74  69  85 S7        30.05R
JOPLIN         PTCLDY    70  68  93 CALM      30.03F
BRANSON        CLOUDY    72  72 100 CALM      30.07F

$$
MOZ032>034-039>042-045>050-055>058-069>072-270800-
...CENTRAL MISSOURI...

CITY           SKY/WX    TMP DP  RH WIND       PRES   REMARKS
COLUMBIA       CLOUDY    72  71  97 CALM      30.04F
JEFFERSON CITY CLOUDY    74  72  93 NW5       30.03S
ROLLA          CLOUDY    73  71  93 S6        30.06S
SEDALIA        CLOUDY    73  71  93 E3        30.05F FOG
WHITEMAN AFB   MOCLDY    70  70 100 E1        30.03F

$$
MOZ051-052-059>065-270800-
...EAST CENTRAL MISSOURI...

CITY           SKY/WX    TMP DP  RH WIND       PRES   REMARKS
ST LOUIS INTL  CLOUDY    80  71  74 S8        30.06
SPIRIT OF STL  MOCLDY    76  74  93 W5        30.04R
ST CHARLES     CLOUDY    75  74  96 SE3       30.04S

$$
MOZ072>076-082>087-097>100-106>115-270800-
...SOUTH CENTRAL AND SOUTHEAST MISSOURI...

CITY           SKY/WX    TMP DP  RH WIND       PRES   REMARKS
CAPE GIRARDEAU CLOUDY    73  69  87 CALM      30.04F
FARMINGTON     CLOUDY    71  68  90 S8        30.08S
POPLAR BLUFF   PTCLDY    72  70  93 N5        30.05S
WEST PLAINS    CLOUDY    70  67  90 CALM      30.10R

$$



USA.gov is the U.S. government's official web portal to all federal, state and local government web resources and services.